Wind_Speed
13 14 14 14 15 15 15 16 16 16 15 15 16 16 16 16 16 16 16 15 16 16 16 15 15 15 14 14 14 14 14 14 14 14 12 13 14 14 12 12 14 13 12 12 13 14 13 14 14 15 17 19 19 19 19 18 18 15 18 19 20 22 21 19 18 16 13 8 3 3 6 9 6 5 7 6 12 11 8 10 10 8 9 11 9 10 14 16
13 13 14 14 14 15 15 15 15 15 15 15 15 16 16 16 16 16 16 15 15 15 16 15 15 15 14 14 14 14 14 13 14 12 11 14 12 11 12 12 13 13 12 12 12 12 12 12 13 15 17 18 19 18 18 18 19 19 21 23 24 25 21 18 18 16 16 11 5 5 3 7 3 3 6 6 8 11 11 9 9 8 8 8 8 11 15 17
13 13 14 14 14 14 14 14 15 15 15 15 15 15 15 16 16 16 16 15 15 15 15 15 15 15 15 14 14 13 13 13 13 12 12 13 11 10 12 12 12 12 11 12 12 12 11 11 12 15 17 18 18 16 16 16 18 19 21 26 26 24 22 20 18 12 13 16 6 5 4 5 3 3 5 6 8 11 13 10 11 13 11 9 9 12 16 19
13 14 14 14 14 14 14 14 15 15 15 15 15 15 15 15 15 16 15 15 15 15 15 15 15 15 15 14 13 12 12 12 13 12 10 10 10 10 11 11 12 11 11 11 12 13 13 14 14 14 16 17 16 15 15 15 16 17 21 26 24 22 25 22 17 13 14 19 14 2 7 5 2 1 3 7 12 16 17 13 13 13 13 14 13 15 19 21
13 14 14 14 14 14 15 15 15 15 15 14 15 15 15 15 15 15 15 15 15 15 15 15 15 15 14 14 13 12 11 10 12 11 7 7 8 8 8 10 11 10 11 12 12 14 15 16 15 11 13 14 14 14 14 15 15 17 20 22 21 22 24 22 21 21 19 16 9 5 8 2 4 3 2 5 8 15 20 17 14 13 14 14 14 17 22 23
14 14 14 14 15 15 15 15 15 15 14 14 14 15 15 15 15 15 15 15 15 15 15 14 14 14 14 14 13 11 10 9 11 13 9 6 7 7 7 8 9 10 10 11 12 13 15 17 15 12 12 12 14 16 14 13 15 20 21 21 21 23 24 23 22 20 16 11 7 6 12 6 5 3 5 8 12 14 16 14 13 15 17 16 15 19 24 25
13 14 14 15 15 15 15 15 15 15 15 14 14 15 15 15 15 15 15 15 15 15 15 15 14 14 14 14 13 12 10 8 11 16 13 9 9 8 8 7 7 9 9 9 11 12 14 17 16 16 15 14 13 16 16 15 17 21 22 21 23 24 25 23 20 20 19 15 12 9 14 12 8 7 6 9 12 14 14 11 10 13 16 18 20 23 25 26
13 14 14 14 15 15 15 15 15 15 15 14 14 15 14 15 14 14 14 14 15 15 15 15 14 14 14 14 13 12 10 9 13 16 15 13 12 10 9 9 7 7 8 9 11 12 14 17 16 16 17 16 14 14 15 16 19 23 24 23 24 25 24 23 19 19 20 18 17 16 15 16 10 5 8 10 11 13 14 11 8 9 13 18 22 23 24 23
13 13 14 14 14 15 15 15 15 15 15 14 14 15 15 15 14 14 14 14 14 15 15 15 14 14 14 14 14 13 12 11 14 15 15 16 14 12 11 9 9 8 8 9 11 13 15 16 15 15 16 15 14 14 12 16 19 21 23 23 24 25 23 23 22 18 18 18 15 12 13 17 12 7 10 11 13 12 13 11 7 6 12 18 21 20 21 20
14 14 14 14 14 14 15 15 15 15 15 14 14 15 15 15 14 14 14 14 14 15 15 15 15 15 15 14 14 14 14 13 14 15 16 15 14 12 11 11 10 9 8 9 11 13 15 14 12 11 13 15 17 17 16 18 19 17 20 23 23 25 22 21 23 19 16 14 11 6 7 11 14 14 13 11 15 13 11 10 8 7 11 16 20 20 19 19
15 15 14 14 14 14 14 15 15 15 15 15 14 14 14 14 14 14 14 14 14 15 15 15 15 15 15 15 15 12 11 14 15 16 16 14 14 12 11 12 11 10 10 10 11 13 15 13 10 9 12 13 15 17 19 19 20 20 21 24 24 23 23 22 23 23 18 17 16 13 12 12 13 16 15 13 18 20 15 11 11 9 9 12 18 19 18 18
15 15 15 14 14 14 14 15 15 15 15 15 14 14 14 14 14 14 14 14 15 15 15 15 16 16 16 16 13 9 10 16 17 16 16 13 12 11 12 13 11 11 11 10 11 13 12 13 11 11 15 14 13 13 16 17 19 23 21 23 24 22 23 21 22 25 22 20 19 16 17 18 16 16 15 15 17 21 19 16 15 12 12 12 15 17 17 17
15 15 15 15 14 14 14 14 15 15 15 15 14 14 14 14 14 13 13 14 15 16 15 16 16 16 18 15 9 10 14 17 17 15 16 14 10 9 12 12 11 12 12 12 14 10 6 8 12 16 18 19 18 15 15 13 13 18 19 22 24 23 24 21 19 23 23 20 15 14 20 22 20 18 16 17 18 20 21 20 19 18 17 14 15 16 16 18
16 15 15 15 15 15 14 14 15 14 14 15 14 14 14 13 13 13 13 14 15 16 15 16 17 17 18 13 9 14 16 15 17 17 17 17 14 11 11 11 11 12 13 15 15 12 7 11 16 20 22 22 21 19 17 15 12 13 17 21 23 25 26 20 19 21 23 22 16 15 22 22 19 19 18 19 20 23 23 21 22 19 17 17 16 15 15 18
16 16 16 16 16 16 15 15 15 15 15 14 14 14 14 13 13 13 14 14 15 16 15 16 16 17 18 13 11 14 15 14 15 15 16 16 16 13 10 9 10 11 12 15 16 17 16 16 16 20 23 22 21 19 17 17 16 13 16 20 21 25 27 21 21 22 22 24 22 21 24 21 19 18 18 18 22 27 26 22 20 17 16 18 17 15 14 16
16 16 16 16 16 16 16 15 15 16 15 15 15 14 14 13 12 13 14 14 15 15 15 16 16 17 16 13 11 12 12 11 10 11 13 15 14 10 7 7 7 10 11 14 17 19 21 19 15 16 20 22 21 18 15 17 17 14 15 21 20 22 25 24 25 24 22 24 25 26 24 21 21 19 19 19 20 24 27 25 21 18 17 17 17 16 15 14
17 17 17 17 16 16 15 15 15 15 16 15 15 14 14 13 12 13 13 14 15 15 16 16 16 16 14 12 10 7 9 8 7 10 12 12 11 7 9 9 6 7 10 12 16 17 19 19 17 15 18 21 21 17 16 18 19 18 17 21 22 21 22 24 27 24 23 26 28 29 27 24 22 19 19 20 20 24 28 27 24 21 19 17 18 17 15 14
18 18 18 18 18 18 17 16 16 15 16 16 15 15 14 12 12 13 13 14 15 16 16 15 17 15 9 9 5 1 4 7 8 9 8 8 8 10 12 11 9 8 9 11 13 15 16 18 16 15 17 20 21 21 22 23 21 21 21 22 24 25 24 24 26 25 22 26 31 32 30 27 24 19 18 19 20 25 30 29 28 27 23 19 19 18 17 19
20 20 20 20 20 20 19 19 18 17 16 15 15 15 14 13 12 12 13 16 17 17 16 15 17 14 7 5 5 4 5 6 9 11 9 7 8 13 13 11 13 11 10 13 13 13 14 15 16 18 20 20 22 26 27 25 21 22 23 24 24 24 25 23 23 25 23 26 33 35 32 30 27 20 18 21 19 20 31 33 29 26 22 21 20 20 21 23
20 20 20 20 20 20 20 20 19 19 17 16 16 14 14 13 12 12 15 19 18 17 17 17 20 19 13 7 6 4 5 8 10 12 13 9 8 15 14 14 18 16 14 15 13 10 12 16 20 22 23 20 20 23 25 22 21 24 25 25 24 24 26 24 25 25 23 27 36 35 32 31 26 20 18 21 16 14 28 36 27 22 22 23 23 22 24 24
20 20 20 20 20 20 19 19 18 18 18 17 16 15 13 12 12 15 19 21 18 17 18 17 21 21 15 14 9 7 7 14 14 12 12 10 10 15 17 17 20 19 17 16 13 9 11 19 23 21 19 18 17 18 20 18 19 24 24 25 26 27 27 24 25 25 23 29 38 33 28 28 23 18 15 18 16 11 24 28 19 19 23 25 25 25 26 25
20 20 20 20 20 19 19 18 17 17 16 16 16 15 13 12 14 16 20 23 18 15 18 17 21 22 15 14 14 16 16 17 17 14 13 13 15 16 18 19 20 20 18 15 15 16 17 22 23 19 15 15 16 18 20 20 19 21 22 23 25 27 25 21 23 27 27 27 35 33 25 24 23 18 14 15 17 16 17 19 16 16 23 27 26 27 27 24
20 19 20 20 19 19 18 17 17 16 15 14 13 13 13 12 13 16 19 24 21 15 17 19 20 22 18 15 17 20 20 17 18 18 15 17 20 17 18 19 18 18 18 17 17 22 22 15 13 15 15 16 19 19 21 24 21 19 20 22 25 26 23 16 15 13 22 20 24 31 26 22 21 18 18 18 18 20 20 20 20 17 20 23 24 26 25 23
18 18 19 18 18 18 17 16 16 14 13 11 10 10 12 11 11 16 18 23 25 15 10 16 18 18 17 15 16 22 21 17 18 18 17 19 20 17 18 18 16 17 19 19 17 21 24 13 5 10 14 16 20 21 22 23 20 16 16 19 24 27 23 17 15 3 22 22 14 20 19 15 19 19 20 19 17 21 23 23 24 21 20 19 21 24 21 18
15 15 16 16 15 16 16 15 13 11 9 7 6 6 7 9 10 14 16 19 25 18 8 11 15 13 11 11 15 19 20 19 20 19 19 20 17 17 19 18 17 18 18 19 19 20 25 21 15 15 13 14 17 21 22 21 20 18 17 17 20 26 25 20 16 11 8 17 11 11 7 7 15 18 19 16 15 20 22 24 24 23 24 22 22 23 19 17
13 13 14 14 13 13 14 13 9 8 8 9 10 9 5 8 10 11 13 16 22 20 12 12 12 8 9 15 15 13 17 22 22 19 20 22 18 15 18 18 19 20 18 18 20 21 21 20 20 20 17 16 19 22 21 17 17 21 23 22 19 23 24 20 15 15 7 10 13 12 7 7 12 16 19 18 19 19 22 25 23 22 24 23 22 21 20 21
12 11 12 12 12 11 11 11 8 8 11 11 12 12 9 11 11 7 8 10 13 12 7 11 11 7 10 15 16 16 17 18 18 18 23 25 22 17 19 20 18 19 18 17 21 24 21 17 18 20 19 18 21 23 20 16 17 22 23 22 20 19 19 19 15 15 14 6 10 13 9 9 12 17 18 18 19 20 26 25 21 23 25 22 22 22 22 21
12 11 11 11 12 11 8 10 9 8 12 13 12 11 8 9 8 4 2 3 2 2 5 14 13 7 6 12 18 21 15 9 11 17 24 24 23 20 22 24 20 18 16 17 21 21 20 18 16 17 17 15 15 15 15 14 17 21 19 18 19 17 17 18 14 13 13 8 7 12 10 7 10 16 15 16 21 24 27 25 23 25 24 19 16 17 20 19
13 11 10 10 12 12 8 9 9 9 13 14 14 10 5 3 8 6 1 0 2 2 5 13 14 9 7 11 18 21 16 11 12 13 20 22 23 21 22 24 23 21 17 17 22 19 16 17 16 16 17 17 15 14 14 16 18 19 16 15 15 16 18 20 16 15 12 8 7 9 10 7 7 14 15 15 22 28 26 24 26 24 20 15 12 11 15 16
12 11 10 9 12 12 9 10 10 8 11 13 12 7 3 6 9 6 2 3 5 5 5 10 12 11 10 13 18 20 18 17 14 12 19 23 22 21 23 21 21 23 20 18 21 21 15 13 14 16 16 16 18 18 16 16 18 16 14 13 12 13 17 18 16 17 9 5 9 11 12 8 5 13 15 11 16 26 27 25 25 22 18 17 16 12 11 13
11 10 9 8 10 11 9 11 10 7 8 10 8 8 8 10 9 5 3 5 8 7 6 9 10 14 14 15 19 20 18 18 16 15 21 25 22 22 23 22 20 20 22 21 20 20 19 17 16 17 15 12 13 18 17 16 17 16 14 14 13 12 13 13 12 14 6 2 9 13 16 14 8 8 10 8 9 18 24 26 24 20 17 18 17 14 12 12
11 10 9 8 8 9 10 11 8 6 7 8 9 12 13 11 9 10 7 5 7 3 6 8 8 13 16 15 18 19 17 16 17 18 23 27 24 23 24 24 21 18 20 22 18 15 21 24 19 16 16 14 13 15 15 16 18 19 18 15 9 5 4 6 6 7 4 4 8 12 13 14 9 2 1 4 7 11 16 20 21 19 17 18 17 14 13 11
12 10 10 9 8 7 9 11 8 6 7 8 11 15 15 7 6 15 16 11 5 4 1 5 4 7 13 16 18 18 17 16 15 17 23 26 23 23 24 23 21 19 17 17 17 15 17 23 21 18 18 17 17 19 17 15 17 17 18 18 10 2 2 3 3 2 3 6 12 16 13 9 7 5 3 6 8 9 9 11 15 17 17 18 17 14 14 13
12 11 11 10 8 8 8 9 9 8 7 8 13 16 15 8 7 13 17 19 15 6 10 10 8 7 11 16 17 17 18 19 17 17 21 23 23 23 23 23 22 21 19 16 18 17 13 15 19 19 18 17 18 22 19 14 14 13 14 17 15 10 5 3 2 1 2 2 9 15 11 6 9 9 5 9 9 10 10 12 15 17 18 18 16 16 17 17
11 10 11 10 9 8 9 9 9 8 9 10 14 18 16 14 15 15 15 17 17 16 15 13 13 13 11 14 16 16 19 18 16 19 23 22 23 24 23 24 22 22 23 18 16 17 14 14 18 19 18 18 18 21 21 16 12 13 16 17 17 14 8 6 5 5 2 4 2 5 3 5 12 12 7 10 11 12 14 15 16 17 18 17 16 17 18 19
11 9 9 10 9 6 7 9 8 8 10 11 16 22 22 20 17 15 14 13 13 16 18 18 17 17 16 15 16 17 19 19 16 17 21 24 25 24 22 23 22 22 25 22 16 14 14 14 14 15 19 22 19 17 21 19 11 8 15 17 17 16 12 10 7 5 1 3 1 4 9 12 13 9 10 14 13 13 12 14 16 15 15 14 14 16 14 14
9 7 6 8 7 2 3 6 7 8 10 12 17 22 23 22 19 15 14 14 16 18 21 22 19 16 15 13 15 17 17 20 21 17 16 18 22 23 21 20 22 22 23 23 21 15 14 17 14 11 14 20 18 15 17 20 16 12 11 11 11 13 14 10 5 0 1 2 3 7 12 17 13 8 13 16 15 15 12 13 15 15 15 15 14 15 12 11
7 6 5 5 4 2 2 4 5 7 8 13 19 21 21 21 19 18 17 18 21 20 20 23 21 17 14 12 13 15 15 16 21 21 17 14 16 20 20 18 18 19 18 20 24 20 16 17 15 11 11 12 14 17 16 16 17 17 14 9 7 6 5 5 4 2 2 1 2 4 11 13 7 7 16 20 17 17 16 15 16 16 17 17 16 14 12 12
5 5 4 5 7 8 8 8 7 7 9 13 18 19 18 17 16 16 16 19 21 20 20 22 20 16 13 15 15 11 14 14 15 19 18 13 11 13 16 19 17 17 17 17 17 16 15 14 13 13 14 11 10 17 19 15 15 17 17 13 11 9 5 4 5 4 2 3 1 1 3 2 2 5 12 21 18 14 15 15 15 16 15 14 13 12 12 13
5 5 3 4 7 8 10 12 12 11 11 14 16 16 16 15 15 15 13 16 18 19 21 20 19 18 14 14 16 13 11 12 12 13 15 16 15 10 8 14 18 20 22 19 12 7 10 15 13 11 13 12 9 11 12 8 7 10 14 14 13 12 9 6 7 7 5 2 2 1 1 2 1 1 8 18 17 11 10 10 9 11 12 12 12 12 12 13
6 6 4 6 8 10 11 12 11 10 10 11 12 13 14 14 15 16 15 17 18 18 20 19 19 20 16 14 15 15 15 9 7 8 12 17 19 15 7 5 13 20 24 24 18 8 5 11 15 12 13 12 7 8 6 2 4 5 6 5 5 7 11 8 4 7 10 5 0 2 2 3 1 4 10 18 18 12 9 7 6 9 11 13 14 13 14 15
5 5 6 9 10 10 10 8 6 6 9 10 12 14 15 16 17 17 16 16 16 16 15 12 13 14 14 14 14 15 17 12 4 3 7 10 12 15 12 7 12 17 20 23 21 12 3 3 11 16 17 14 9 9 7 3 2 3 11 9 6 3 6 7 5 7 9 6 1 4 3 2 3 6 14 18 16 14 11 7 6 8 11 13 15 15 16 17
4 4 6 8 7 8 9 6 5 6 10 13 16 17 18 21 20 16 15 14 13 14 11 8 9 10 9 10 13 16 17 13 8 6 5 4 5 10 11 10 12 14 15 22 23 17 7 2 8 13 15 16 15 13 10 6 7 5 9 8 4 5 2 2 6 11 11 10 5 4 4 2 3 7 14 17 17 17 14 11 9 11 13 15 16 16 17 18
5 4 8 8 7 10 11 8 8 9 10 13 15 16 16 20 19 15 14 14 11 10 9 8 9 9 10 12 15 15 14 10 6 2 1 2 3 7 7 9 14 11 12 19 21 18 14 4 6 7 5 7 11 13 13 11 8 5 9 8 8 5 3 3 2 10 10 9 8 5 3 5 6 8 13 15 15 15 14 14 11 12 17 18 16 14 14 15
5 6 8 7 8 10 9 10 12 10 11 13 14 14 13 15 16 13 13 13 11 8 9 9 8 9 14 15 15 9 11 11 11 7 3 2 3 4 5 7 10 9 8 14 17 17 18 10 7 6 1 2 3 5 7 9 8 4 8 9 10 8 3 2 3 5 4 5 10 10 10 11 9 9 9 8 10 11 11 11 10 13 18 19 18 16 12 10
4 4 3 1 8 8 6 9 12 12 14 15 13 10 10 12 14 11 9 10 9 7 8 9 8 9 13 14 12 6 7 8 10 8 4 2 4 4 2 4 4 6 9 15 17 14 13 11 10 10 6 2 0 2 2 5 6 2 7 10 11 11 8 2 2 2 0 3 6 8 13 17 15 12 9 9 12 13 12 11 11 15 17 15 17 17 13 12
7 4 2 5 7 7 8 10 10 10 12 12 9 7 7 9 10 9 8 6 6 6 6 7 7 7 10 11 11 8 7 7 8 10 7 1 4 3 4 6 3 6 11 16 17 14 11 9 7 9 9 6 2 3 3 4 4 2 4 9 12 12 9 4 2 4 3 2 4 8 15 17 15 13 12 12 13 14 14 12 12 14 13 13 15 15 13 15
5 3 4 4 5 10 14 12 8 9 8 6 5 4 3 3 4 4 6 4 1 2 5 3 5 5 8 8 7 6 7 8 8 11 8 1 2 1 2 5 5 9 12 12 12 12 12 10 7 7 9 8 4 1 2 4 4 5 9 11 14 15 11 4 3 7 6 4 8 15 18 14 13 13 13 13 13 13 14 14 13 15 14 15 18 17 17 17
3 2 2 6 7 13 17 13 10 13 10 4 1 1 5 7 6 6 3 1 4 2 2 1 4 6 7 7 6 5 5 6 5 7 6 4 1 2 2 2 4 10 10 7 7 9 10 10 9 8 7 6 5 5 3 1 2 4 6 8 9 8 4 2 6 8 7 9 15 19 19 15 13 14 15 16 16 14 13 13 15 16 16 18 20 19 20 21
2 3 6 8 7 13 16 13 14 18 14 5 1 3 8 9 9 13 12 7 9 10 6 4 3 4 4 4 4 3 2 3 2 1 5 6 4 1 2 1 2 6 4 2 4 9 10 7 6 8 8 6 6 6 5 5 5 5 3 2 4 1 5 8 11 10 10 17 23 22 21 18 14 14 15 16 16 17 15 14 16 17 18 20 20 19 21 22
7 7 7 8 8 13 16 12 12 18 17 9 1 2 6 8 7 9 10 8 11 14 12 9 6 2 1 1 2 2 3 5 7 6 3 3 4 3 2 4 2 3 3 4 4 7 8 4 3 6 7 6 5 4 5 8 8 7 7 3 3 3 2 4 7 8 8 16 24 23 21 19 13 11 13 13 15 17 17 16 17 18 19 20 20 21 22 23
10 9 7 8 11 11 11 9 10 16 20 15 7 2 4 6 4 4 5 4 5 8 9 8 6 2 1 3 3 4 5 6 8 8 6 6 5 3 1 3 3 4 5 5 4 5 6 7 5 3 3 2 2 4 7 8 5 5 6 4 2 4 2 3 4 4 5 10 14 15 18 18 13 10 10 11 11 12 14 16 18 18 19 20 21 22 23 24
Wind_Direction
297 295 293 292 291 290 290 290 290 290 292 293 294 294 294 294 295 296 297 298 298 298 299 298 298 296 295 292 289 287 284 283 280 281 285 275 266 269 267 258 259 258 253 249 244 244 240 235 226 214 211 212 214 214 211 193 186 215 237 244 245 243 237 224 228 245 289 349 79 226 175 137 95 153 159 173 212 227 231 217 211 213 221 225 226 230 216 201
297 296 294 293 291 290 290 290 291 291 292 293 293 293 294 294 295 295 295 296 296 296 297 296 297 296 295 293 289 287 284 283 283 282 276 270 269 269 268 260 256 255 252 248 242 241 238 235 226 216 214 213 214 209 208 198 188 204 224 240 245 238 226 217 235 256 286 317 30 13 211 171 114 140 155 169 219 247 253 243 233 234 232 220 219 227 213 200
298 297 295 294 292 291 291 291 292 292 292 292 292 293 293 294 294 294 295 294 295 294 295 295 295 295 294 293 290 288 284 284 284 276 267 272 278 267 263 261 256 253 249 245 238 232 223 221 217 214 216 213 212 207 206 203 200 206 217 234 238 237 238 237 247 261 289 297 311 41 88 164 221 255 261 225 214 244 255 258 255 256 253 239 227 223 212 202
297 297 296 294 293 292 292 291 291 291 290 290 291 292 292 293 293 293 294 293 294 293 294 294 294 294 293 293 291 289 286 282 280 275 272 271 270 264 262 260 255 252 244 240 235 228 215 207 202 203 210 212 209 204 206 208 211 215 222 233 233 237 248 246 248 262 293 298 284 261 104 109 262 253 312 248 221 236 248 258 258 256 258 254 239 222 212 206
296 296 295 295 294 293 293 292 291 290 289 290 290 291 291 292 293 293 293 293 293 292 292 292 292 292 291 290 289 289 284 279 279 277 274 264 262 262 261 258 252 247 240 237 233 226 218 205 190 192 208 206 204 206 208 210 220 227 228 241 247 246 248 245 254 269 289 292 266 194 152 110 346 159 176 281 258 247 245 253 257 254 259 251 231 216 212 207
295 295 295 295 295 293 292 291 291 290 290 290 290 290 290 291 292 292 292 292 291 290 290 290 290 290 289 288 286 285 276 270 280 280 274 263 261 261 260 259 251 244 239 239 235 227 223 210 186 187 219 215 207 213 214 211 226 237 234 241 255 258 258 258 263 270 285 278 228 177 178 184 346 242 238 290 274 259 245 246 257 254 254 247 226 213 209 206
295 295 295 295 294 292 291 290 290 291 291 291 290 290 290 290 290 291 291 292 291 289 289 288 288 287 286 285 283 281 274 258 266 271 271 265 257 258 263 263 252 243 241 239 233 229 226 216 190 183 214 229 223 218 216 220 228 240 243 240 248 257 261 269 273 271 280 279 253 230 196 201 305 284 253 291 261 243 243 250 266 254 247 242 224 211 207 204
294 294 295 293 293 292 291 291 291 291 292 292 292 291 290 290 290 290 291 291 290 289 288 287 286 284 282 282 281 278 269 248 251 262 268 270 265 262 262 258 255 246 234 232 229 227 224 216 194 182 205 223 235 233 221 231 235 239 247 247 252 256 258 265 271 275 280 278 269 266 233 227 283 267 217 282 270 242 249 256 266 248 231 225 211 202 203 201
295 294 294 293 293 292 292 292 292 292 292 292 292 292 291 290 290 290 290 290 290 288 286 285 283 281 278 276 278 276 267 252 250 257 261 264 267 263 260 252 249 243 224 220 221 223 220 208 190 189 207 217 235 247 239 246 244 237 242 247 255 261 263 258 253 267 273 265 267 277 257 239 248 231 215 261 271 253 250 247 252 231 202 201 199 195 197 201
296 295 294 294 294 293 293 293 293 293 292 292 291 292 291 290 290 290 290 289 288 287 285 284 282 278 275 272 274 272 270 269 262 260 261 261 262 257 255 252 244 236 224 217 213 221 223 203 185 198 218 221 228 239 243 248 249 243 247 252 256 259 266 261 250 260 270 262 255 248 259 247 238 237 226 241 262 249 228 242 252 210 190 193 199 200 202 206
296 295 295 295 294 294 295 294 294 293 293 293 292 292 292 290 290 288 289 288 287 287 285 284 281 276 273 271 273 271 265 271 266 263 266 264 262 256 247 247 242 229 220 213 209 218 218 188 165 201 230 237 233 237 241 242 247 252 258 262 259 256 264 266 254 254 262 263 260 254 255 249 237 241 229 223 251 244 224 247 249 219 221 216 209 210 215 218
295 296 295 295 295 295 295 295 295 294 294 293 293 292 291 291 289 287 287 286 285 286 286 285 281 277 273 272 276 267 240 249 260 268 273 264 254 255 250 243 237 229 217 208 206 207 202 174 166 209 230 245 249 247 245 240 250 255 258 260 257 259 262 259 251 250 255 260 261 257 247 239 232 238 226 202 229 245 236 244 247 248 262 242 221 221 225 230
295 295 295 295 295 295 294 295 295 295 295 295 294 293 292 291 289 286 284 284 285 285 287 286 282 278 274 273 273 257 242 242 250 259 266 262 252 251 253 245 233 225 215 209 201 182 182 197 206 222 224 234 241 241 242 240 255 258 254 256 258 264 260 249 245 247 251 255 253 238 232 234 231 230 225 202 214 239 239 245 255 263 266 245 231 237 238 238
294 294 295 295 294 295 294 294 295 295 297 296 295 293 291 291 288 285 282 283 284 285 288 287 285 282 275 274 266 259 256 249 249 249 250 258 264 257 246 241 232 220 211 209 196 169 187 232 232 228 219 222 230 234 238 232 239 257 255 255 258 262 258 245 240 242 246 247 240 231 231 235 233 228 224 210 213 233 238 246 254 254 254 246 244 251 250 245
294 294 294 294 294 294 293 293 294 294 296 297 297 295 292 291 288 284 281 281 283 284 286 286 286 284 279 276 262 258 259 255 259 263 257 258 266 261 244 238 230 217 208 202 191 175 188 215 230 232 221 217 225 231 237 238 240 247 250 250 250 254 255 249 244 239 241 242 232 229 234 235 232 227 228 218 215 230 236 239 243 242 241 247 253 256 256 251
294 294 294 294 294 294 294 293 293 293 293 294 295 296 295 292 287 283 280 279 281 281 282 284 285 285 285 281 268 265 263 259 263 263 261 258 259 257 239 237 227 216 212 203 197 192 198 205 212 228 226 223 228 229 240 257 253 236 240 249 246 248 252 252 252 241 235 238 229 226 233 234 233 234 232 217 210 226 232 231 237 241 237 243 254 261 265 256
293 294 293 293 293 293 293 293 293 293 292 292 291 293 295 294 288 282 280 278 276 277 278 280 280 283 286 276 271 275 263 264 265 247 251 258 247 216 208 233 246 225 221 216 212 210 213 214 213 222 228 228 224 221 241 252 244 237 239 244 242 245 248 249 254 249 237 232 227 226 228 229 240 246 234 219 218 223 221 222 231 236 232 240 257 262 258 240
293 293 292 291 291 290 290 290 290 292 292 292 290 289 291 293 287 280 278 276 273 273 274 275 276 279 278 256 243 10 308 298 292 266 265 273 233 184 187 221 259 261 232 226 226 221 220 222 223 227 230 231 217 209 230 237 234 238 238 238 237 238 240 245 250 249 244 235 228 224 220 224 236 242 238 231 227 222 218 218 224 228 231 244 256 247 236 237
293 292 290 289 288 287 286 286 285 285 286 289 289 289 289 287 284 281 276 270 269 270 270 268 266 257 234 209 153 89 352 315 290 289 294 281 211 177 168 201 240 249 230 227 228 222 222 221 222 225 224 226 216 207 218 230 234 239 244 248 244 240 241 248 252 244 242 239 228 219 216 222 230 238 249 235 227 237 230 217 211 220 234 243 241 232 235 246
292 291 290 289 287 286 285 284 283 281 279 281 284 287 287 282 277 278 273 265 264 267 264 260 261 255 233 212 140 104 310 278 269 287 288 270 197 177 171 199 227 231 223 225 228 222 219 222 224 225 221 218 218 215 216 225 237 245 256 264 266 270 262 260 269 256 246 240 225 215 215 220 227 246 255 232 232 247 217 203 203 221 237 232 223 227 239 244
291 291 290 288 287 286 286 285 284 282 278 275 276 280 286 281 272 275 277 273 268 265 263 254 259 264 243 220 188 154 230 260 267 271 267 249 197 186 189 204 220 225 224 217 219 229 221 226 229 228 227 218 215 222 224 229 242 249 259 269 276 280 270 270 273 259 252 239 218 207 209 215 226 245 244 234 240 215 186 190 206 229 230 221 218 230 240 245
292 291 288 287 287 286 285 285 284 283 281 276 273 273 277 275 270 276 283 282 276 268 268 252 247 262 258 227 197 172 195 238 258 260 248 226 208 202 203 209 216 219 225 216 214 227 229 234 237 233 229 226 222 225 233 241 248 255 261 267 272 267 263 280 281 261 256 239 208 196 201 210 224 235 226 234 241 224 207 205 208 219 218 216 225 235 236 241
292 290 287 286 285 284 284 283 282 282 282 280 276 271 270 269 270 275 279 283 282 269 267 262 252 258 259 237 200 183 197 220 242 251 240 217 213 214 208 215 224 217 221 225 218 222 227 237 243 228 215 226 237 234 241 248 246 251 255 256 262 260 263 296 316 262 224 205 184 188 198 207 215 220 216 227 241 239 234 220 208 208 210 217 228 229 230 237
291 289 287 285 285 284 282 280 281 281 282 282 279 270 268 267 263 267 272 283 284 272 263 268 261 258 256 241 207 198 202 212 229 238 237 222 214 216 210 213 227 219 218 225 222 222 227 236 250 224 210 218 235 237 243 249 242 242 247 251 260 258 259 287 327 311 179 171 158 180 194 204 204 210 222 233 241 231 220 213 208 205 211 224 220 215 221 233
292 290 288 286 286 283 280 280 282 280 270 258 248 243 269 279 264 265 278 293 288 274 262 260 258 265 256 223 208 207 208 216 222 220 232 239 224 213 207 207 222 223 220 222 223 228 232 241 250 243 228 213 222 235 240 244 248 252 246 251 265 260 260 273 300 320 186 178 193 204 211 223 206 209 221 230 239 226 205 203 207 206 218 228 220 216 222 230
295 293 291 291 288 282 281 280 273 263 240 222 226 217 222 264 257 266 283 297 293 283 272 255 250 265 234 206 199 207 220 233 234 216 221 242 239 215 205 207 219 224 224 223 225 233 237 242 244 244 241 225 223 232 234 235 249 259 250 247 261 266 271 274 280 302 289 185 192 207 222 242 231 229 228 234 246 229 195 193 204 209 217 225 226 228 236 245
297 297 298 299 291 283 282 277 266 246 235 234 238 227 225 248 246 261 282 289 301 299 265 227 229 246 231 211 197 198 213 237 247 215 206 231 237 219 211 211 220 225 223 224 225 230 240 245 239 238 241 234 227 225 224 233 245 255 256 251 253 263 275 279 278 286 284 240 185 193 212 238 247 250 243 238 236 206 183 187 202 212 219 227 231 234 241 246
295 296 300 301 294 286 282 279 270 239 233 240 246 249 273 271 230 209 275 290 306 312 223 211 215 230 218 203 205 212 214 231 249 207 194 221 231 219 215 211 217 226 222 230 233 231 239 244 237 233 237 237 230 222 228 242 245 250 259 255 252 261 277 279 271 267 274 271 202 189 205 236 252 253 246 240 228 198 186 197 207 215 222 228 234 239 242 239
294 293 294 294 290 290 289 279 268 238 232 239 243 252 296 270 195 177 94 344 214 237 236 215 211 213 182 180 205 221 220 215 242 216 192 215 224 219 219 209 210 222 222 233 243 243 241 242 239 231 234 241 242 242 245 245 244 252 262 263 265 267 274 275 256 242 253 251 219 203 205 221 263 258 255 257 234 205 197 210 215 218 223 235 249 249 250 248
296 295 291 285 281 287 289 275 271 255 244 250 249 236 231 207 189 179 175 223 262 300 271 223 217 217 189 181 202 220 223 212 225 224 199 209 218 216 218 213 214 228 234 236 243 244 238 239 239 228 231 245 246 243 243 240 241 249 255 257 268 266 268 273 246 227 238 224 219 232 230 227 263 263 264 271 229 206 203 207 209 215 227 243 251 247 253 253
301 299 292 283 276 281 281 274 276 269 255 258 245 212 213 208 190 193 213 238 272 279 232 219 227 225 209 199 207 221 230 212 208 215 200 200 212 214 213 215 221 235 243 246 250 243 232 235 233 221 223 235 241 243 240 237 233 234 241 244 252 257 267 284 250 219 227 220 208 221 235 240 244 260 271 271 231 214 214 211 209 217 229 235 238 239 243 238
302 302 295 287 279 278 278 275 275 267 249 235 212 202 207 206 207 217 214 249 277 239 193 209 219 220 215 210 211 226 238 216 205 213 202 196 206 213 211 212 218 230 238 245 253 239 227 237 240 230 230 225 229 243 242 238 233 227 223 223 239 260 259 283 258 208 205 212 209 212 226 235 224 180 279 244 219 209 215 220 221 223 223 219 223 230 231 230
302 302 295 290 284 277 275 275 271 263 251 224 202 199 196 193 227 224 222 233 220 102 30 262 237 218 218 218 217 226 237 223 211 212 204 200 205 214 218 215 215 226 235 241 249 242 229 238 245 243 240 234 230 235 237 238 239 231 210 200 208 198 132 252 257 215 222 222 229 229 226 214 174 124 166 195 189 192 199 210 214 215 214 214 221 229 233 238
303 303 296 292 285 274 271 273 270 258 244 222 201 193 191 202 230 224 230 238 233 261 312 299 295 274 234 226 224 223 227 227 223 215 205 203 205 210 218 219 216 224 234 235 237 241 235 229 234 231 230 238 234 226 227 236 242 233 206 200 213 212 193 215 228 195 210 257 240 228 225 201 142 123 170 196 191 190 181 180 189 194 200 209 220 227 232 237
305 304 299 296 286 273 263 262 267 254 237 223 202 192 197 216 225 223 231 242 250 275 297 298 296 284 250 239 242 233 226 228 226 215 209 209 210 210 213 219 220 221 230 234 229 236 245 238 236 233 228 237 241 224 215 227 241 225 211 216 230 235 218 203 232 237 176 36 327 195 151 153 145 133 170 208 203 190 183 190 197 199 204 215 227 228 231 235
306 306 305 301 294 288 271 259 260 250 237 222 204 201 211 222 226 231 238 247 263 283 300 303 292 274 254 246 249 243 234 231 228 221 216 214 217 219 217 221 225 222 226 232 231 234 248 248 244 243 230 225 234 230 214 220 240 222 214 222 230 242 239 213 224 258 200 54 254 158 113 130 142 148 203 219 213 194 187 200 212 220 225 231 231 225 226 229
311 316 315 299 287 282 264 254 250 247 236 221 212 214 225 233 234 239 247 260 271 287 306 308 298 281 263 248 244 248 248 233 221 227 236 224 219 223 223 222 224 224 227 233 239 245 250 252 252 244 223 213 222 236 225 226 238 233 223 224 222 232 236 215 178 113 59 76 216 194 154 150 146 158 200 214 213 201 197 204 214 228 234 234 227 218 218 223
325 339 337 314 321 12 312 273 258 256 241 225 224 228 237 243 245 248 253 265 276 290 302 297 293 293 284 281 271 252 248 234 211 216 237 235 221 222 228 229 219 216 221 227 237 246 249 256 260 241 217 213 217 223 225 227 234 238 238 242 246 229 210 188 141 114 178 147 282 221 164 160 145 151 195 213 215 212 217 217 216 222 227 229 227 222 223 229
338 358 346 338 3 359 331 320 309 277 249 235 234 239 248 255 262 263 258 264 273 281 290 290 291 293 284 287 295 273 252 246 212 206 220 228 222 219 233 244 234 220 220 218 227 245 247 247 258 247 229 231 227 216 219 220 221 234 239 236 244 250 257 228 177 152 147 158 264 300 129 147 83 123 197 215 219 230 234 224 216 213 213 214 215 218 222 223
352 351 338 349 358 338 317 311 301 280 261 254 249 249 260 272 278 279 277 278 279 278 284 291 295 299 294 280 286 300 287 257 229 220 227 232 236 229 236 255 252 241 232 220 214 251 250 224 229 245 223 220 237 221 217 226 224 240 240 229 227 230 236 226 196 212 242 206 159 149 64 338 212 177 228 220 222 237 226 211 202 194 192 193 193 197 201 201
9 3 4 357 344 326 314 304 294 287 280 277 272 271 278 285 287 292 289 279 274 274 278 283 285 292 302 292 283 305 320 292 233 217 219 227 239 238 231 284 279 260 241 228 225 248 267 217 216 228 212 204 217 206 202 334 7 1 339 296 273 223 200 188 183 227 237 239 78 156 154 27 20 222 209 203 210 211 187 182 179 165 165 171 175 179 185 189
4 2 359 345 332 326 324 313 308 308 291 280 275 274 275 279 288 297 292 277 270 275 279 277 277 282 290 295 289 297 313 317 308 257 233 238 257 253 246 275 290 272 246 232 233 236 249 233 227 225 218 217 221 210 218 285 251 359 21 21 359 343 197 193 194 207 221 242 337 82 108 51 50 176 176 174 185 189 177 178 191 176 166 168 173 180 186 190
12 341 338 339 327 333 344 340 325 304 287 280 273 264 256 256 264 273 278 284 284 282 287 286 281 282 277 283 290 290 301 318 324 309 270 249 283 276 260 249 258 273 254 233 233 231 219 277 260 233 220 226 230 226 235 250 237 276 6 21 353 5 60 228 234 214 220 238 234 69 72 164 147 167 177 169 168 176 178 176 187 196 185 174 173 174 177 184
63 7 341 345 343 349 352 335 314 301 295 291 282 277 266 255 258 268 278 299 310 296 297 296 284 283 278 289 300 284 276 299 316 323 144 167 282 292 283 243 233 256 260 232 226 225 213 220 285 250 217 230 237 235 239 244 249 305 359 352 326 343 97 95 162 186 193 207 193 137 116 184 183 177 181 178 172 172 180 183 191 207 201 191 187 178 168 169
83 44 18 6 347 349 348 318 304 301 303 302 293 293 287 258 247 255 274 295 312 300 284 274 270 281 283 298 316 283 245 272 290 289 299 297 284 292 311 287 242 231 244 230 221 218 210 217 278 274 162 135 227 237 237 235 240 298 352 336 327 338 1 73 111 154 172 173 160 146 151 171 186 187 175 179 184 176 181 186 183 192 197 199 205 202 192 179
57 52 89 317 311 320 331 311 299 296 299 303 304 301 294 267 243 236 258 283 301 302 275 260 269 295 292 298 318 296 247 279 293 298 319 259 259 272 273 297 268 228 220 208 202 201 195 208 259 270 252 211 38 343 298 234 229 271 355 343 333 337 342 339 180 163 198 176 148 144 163 166 170 182 178 177 186 186 186 181 170 175 178 180 191 194 191 187
45 24 282 283 308 321 334 325 317 317 306 301 309 304 295 286 261 234 225 250 298 303 273 262 269 302 315 307 303 294 276 293 322 344 10 139 235 272 203 201 208 218 221 208 201 199 185 188 233 257 252 243 272 328 296 244 223 231 325 328 324 322 334 347 187 167 168 180 107 134 163 159 150 167 181 182 187 193 190 175 166 172 167 157 170 174 169 172
77 40 325 330 355 359 354 349 358 360 334 308 318 312 308 323 293 249 214 203 340 277 232 247 252 276 342 330 298 294 275 274 320 355 11 69 176 102 211 234 211 193 203 209 211 210 203 210 232 245 243 239 225 213 249 251 260 271 280 293 301 304 312 326 146 151 167 172 140 157 168 153 139 158 172 176 183 190 185 172 168 174 167 156 161 165 164 168
154 158 45 43 17 357 358 4 15 14 4 343 323 90 71 60 58 53 51 117 60 80 195 283 263 267 347 343 286 282 271 269 334 28 45 36 356 186 201 282 220 192 189 196 214 215 211 218 232 236 234 225 204 183 169 194 233 247 263 279 287 295 319 93 134 152 174 150 143 166 172 149 148 173 175 173 182 189 184 176 174 175 173 168 168 171 173 173
99 113 93 76 34 1 8 18 15 11 13 11 239 122 78 69 77 68 57 58 55 49 39 17 309 275 351 4 289 268 208 213 264 74 83 61 46 193 213 6 142 182 195 283 242 220 212 208 219 225 211 182 175 184 177 160 149 151 162 261 269 214 106 105 117 135 155 141 142 163 166 144 149 181 181 173 181 192 195 192 186 179 179 183 183 185 186 185
73 84 100 89 57 25 22 26 14 8 16 29 15 161 76 65 83 84 73 69 62 57 51 35 15 337 231 241 274 249 181 190 221 229 195 112 92 85 310 321 345 190 235 309 278 232 228 223 211 216 203 177 168 174 177 175 158 127 109 111 256 245 158 125 125 129 144 146 148 154 147 135 143 178 187 175 174 185 189 191 192 190 193 198 196 192 194 195
92 87 97 90 71 47 27 19 9 11 22 32 32 25 33 25 36 101 115 95 71 74 67 45 33 46 222 255 280 269 242 229 231 238 238 222 200 150 174 306 304 258 263 293 297 280 260 235 221 215 180 163 219 206 171 162 148 93 84 88 275 265 215 162 156 163 180 177 167 148 138 142 151 172 188 180 176 189 192 190 194 197 201 205 201 197 199 201
Height
3101 3101 3101 3101 3101 3101 3101 3100 3100 3100 3099 3099 3099 3099 3098 3098 3098 3098 3098 3097 3097 3097 3096 3096 3096 3095 3095 3094 3094 3094 3094 3094 3094 3095 3095 3095 3095 3096 3097 3098 3098 3099 3099 3101 3101 3102 3103 3104 3105 3106 3107 3108 3109 3111 3112 3112 3115 3118 3118 3118 3117 3116 3114 3112 3112 3115 3120 3120 3118 3116 3115 3116 3116 3117 3119 3119 3117 3119 3120 3120 3122 3122 3124 3125 3125 3126 3126 3128
3100 3100 3100 3099 3099 3099 3099 3099 3099 3098 3098 3098 3097 3097 3097 3097 3096 3096 3096 3096 3095 3095 3095 3094 3094 3094 3093 3093 3093 3092 3092 3092 3093 3094 3094 3093 3094 3095 3095 3096 3097 3097 3098 3099 3100 3101 3102 3103 3104 3105 3106 3107 3108 3110 3111 3112 3113 3115 3116 3116 3115 3114 3111 3111 3112 3116 3121 3120 3117 3116 3115 3116 3117 3117 3119 3119 3117 3118 3119 3119 3121 3122 3124 3125 3125 3125 3125 3127
3098 3098 3098 3098 3098 3098 3098 3097 3097 3097 3096 3096 3096 3096 3095 3095 3095 3094 3094 3094 3094 3093 3093 3093 3092 3092 3092 3091 3091 3091 3091 3091 3091 3092 3092 3092 3093 3094 3094 3095 3095 3096 3097 3098 3098 3099 3101 3102 3103 3104 3105 3106 3107 3109 3110 3112 3112 3113 3114 3113 3112 3112 3110 3110 3114 3116 3119 3120 3117 3115 3115 3116 3117 3117 3118 3119 3118 3117 3118 3118 3120 3122 3123 3124 3125 3125 3125 3126
3097 3097 3097 3097 3097 3096 3096 3096 3096 3095 3095 3095 3095 3094 3094 3093 3093 3093 3092 3092 3092 3092 3091 3091 3091 3091 3090 3090 3090 3089 3089 3089 3089 3090 3091 3091 3091 3092 3093 3093 3094 3095 3096 3096 3097 3098 3099 3100 3101 3102 3104 3105 3106 3108 3109 3110 3112 3112 3112 3111 3110 3111 3110 3109 3113 3115 3117 3120 3117 3114 3115 3115 3116 3116 3117 3118 3118 3118 3116 3118 3120 3121 3122 3123 3124 3124 3124 3125
3095 3095 3095 3095 3095 3095 3095 3095 3094 3094 3094 3094 3093 3093 3092 3092 3092 3091 3091 3091 3090 3090 3090 3089 3089 3089 3089 3088 3088 3088 3088 3088 3087 3088 3089 3090 3090 3091 3092 3092 3093 3093 3094 3094 3095 3096 3097 3098 3099 3101 3102 3103 3105 3106 3107 3109 3111 3111 3110 3110 3110 3111 3109 3107 3111 3115 3116 3116 3115 3113 3114 3114 3115 3116 3116 3117 3118 3117 3116 3118 3120 3121 3122 3123 3123 3123 3123 3124
3094 3094 3094 3094 3093 3094 3093 3093 3093 3093 3092 3092 3092 3091 3091 3090 3090 3090 3089 3089 3089 3088 3088 3088 3088 3087 3087 3087 3087 3087 3087 3087 3087 3086 3088 3089 3089 3090 3091 3091 3092 3092 3093 3093 3094 3095 3096 3096 3097 3099 3101 3102 3104 3105 3106 3108 3110 3109 3109 3110 3109 3110 3109 3107 3110 3113 3114 3114 3112 3112 3112 3114 3115 3116 3117 3116 3115 3115 3115 3118 3120 3121 3121 3122 3122 3122 3123 3123
3092 3092 3092 3092 3092 3092 3092 3092 3092 3091 3091 3090 3090 3090 3089 3089 3089 3088 3088 3087 3087 3087 3086 3086 3086 3086 3085 3085 3085 3085 3085 3086 3086 3084 3085 3087 3088 3089 3089 3090 3091 3091 3092 3093 3093 3094 3095 3096 3096 3098 3101 3102 3103 3104 3105 3107 3109 3109 3108 3109 3109 3109 3109 3108 3109 3111 3113 3112 3111 3112 3112 3113 3115 3116 3117 3115 3113 3113 3115 3118 3119 3119 3119 3120 3121 3121 3122 3123
3091 3090 3090 3090 3091 3091 3091 3090 3090 3090 3089 3089 3088 3088 3088 3087 3087 3087 3086 3086 3085 3085 3085 3084 3084 3084 3084 3083 3083 3083 3084 3085 3084 3083 3084 3085 3086 3087 3088 3089 3089 3090 3091 3091 3092 3093 3094 3094 3095 3098 3100 3101 3103 3104 3105 3106 3106 3107 3107 3108 3108 3107 3108 3108 3109 3110 3111 3109 3109 3111 3113 3113 3114 3116 3116 3113 3113 3114 3114 3116 3117 3117 3118 3118 3119 3119 3121 3122
3089 3089 3089 3089 3089 3089 3089 3089 3088 3088 3088 3087 3087 3086 3086 3086 3086 3085 3085 3084 3084 3083 3083 3083 3083 3082 3082 3082 3082 3082 3082 3083 3083 3082 3083 3083 3084 3086 3086 3087 3088 3089 3090 3090 3091 3092 3093 3093 3095 3097 3099 3101 3103 3104 3105 3105 3104 3105 3106 3107 3107 3106 3107 3107 3107 3109 3110 3108 3107 3109 3111 3113 3114 3115 3116 3113 3113 3114 3114 3115 3116 3116 3117 3118 3119 3120 3121 3122
3088 3088 3088 3087 3087 3087 3087 3087 3087 3086 3086 3086 3085 3085 3085 3084 3084 3084 3083 3082 3082 3081 3081 3081 3081 3081 3080 3080 3080 3080 3081 3081 3081 3081 3081 3082 3083 3084 3085 3086 3087 3088 3089 3090 3090 3091 3092 3093 3095 3098 3099 3100 3101 3102 3103 3103 3103 3104 3105 3106 3106 3105 3105 3105 3105 3107 3109 3108 3107 3108 3110 3112 3112 3113 3115 3113 3112 3114 3114 3114 3115 3116 3118 3119 3120 3120 3121 3122
3087 3086 3086 3086 3086 3086 3085 3085 3085 3084 3084 3084 3084 3083 3083 3083 3082 3082 3081 3081 3080 3080 3079 3079 3079 3079 3078 3079 3079 3079 3080 3080 3079 3079 3079 3081 3081 3083 3084 3084 3085 3087 3087 3089 3089 3090 3092 3093 3095 3098 3100 3100 3100 3100 3101 3101 3102 3102 3103 3103 3103 3103 3103 3103 3104 3105 3106 3106 3106 3108 3109 3111 3112 3112 3113 3114 3111 3110 3113 3114 3115 3116 3117 3119 3120 3121 3122 3122
3085 3085 3085 3084 3084 3084 3084 3083 3083 3083 3082 3082 3082 3082 3081 3081 3081 3080 3080 3079 3078 3078 3078 3077 3077 3076 3077 3077 3078 3078 3079 3077 3076 3077 3077 3078 3080 3081 3082 3083 3084 3085 3086 3088 3089 3090 3092 3093 3094 3097 3098 3099 3099 3100 3099 3100 3100 3100 3101 3100 3099 3101 3100 3101 3102 3102 3104 3104 3105 3107 3108 3108 3110 3110 3111 3113 3110 3108 3110 3112 3113 3115 3116 3118 3120 3121 3121 3122
3083 3083 3083 3083 3082 3082 3082 3082 3081 3081 3081 3081 3080 3080 3080 3080 3079 3079 3078 3077 3077 3076 3076 3075 3075 3074 3074 3075 3076 3076 3076 3076 3075 3076 3075 3075 3078 3080 3080 3081 3083 3084 3085 3087 3088 3089 3091 3093 3094 3094 3095 3096 3097 3097 3097 3098 3099 3099 3099 3098 3098 3098 3097 3099 3101 3101 3102 3103 3104 3106 3105 3105 3107 3109 3110 3111 3111 3107 3107 3109 3110 3112 3114 3116 3119 3120 3121 3122
3081 3081 3081 3081 3081 3080 3080 3080 3080 3079 3079 3079 3079 3078 3078 3078 3078 3077 3077 3076 3075 3075 3074 3073 3073 3072 3072 3073 3074 3073 3073 3074 3074 3074 3073 3073 3076 3078 3079 3080 3082 3083 3084 3086 3086 3087 3090 3092 3092 3092 3092 3093 3094 3094 3095 3095 3096 3097 3098 3096 3096 3095 3094 3097 3099 3100 3101 3101 3104 3104 3102 3103 3105 3107 3108 3109 3111 3107 3105 3107 3108 3109 3112 3114 3116 3118 3120 3121
3079 3079 3079 3079 3079 3079 3078 3078 3078 3078 3077 3077 3077 3077 3077 3076 3076 3075 3075 3074 3074 3073 3073 3072 3071 3070 3070 3071 3072 3071 3071 3072 3073 3073 3073 3073 3074 3075 3077 3079 3080 3081 3082 3084 3085 3085 3087 3089 3090 3090 3091 3091 3092 3093 3093 3093 3093 3095 3095 3094 3094 3093 3092 3095 3097 3097 3099 3099 3102 3102 3100 3102 3104 3105 3106 3107 3109 3107 3105 3106 3106 3107 3110 3112 3115 3117 3119 3121
3078 3077 3077 3077 3077 3077 3076 3076 3076 3076 3076 3076 3075 3075 3075 3075 3074 3074 3073 3073 3072 3071 3071 3070 3069 3069 3068 3069 3069 3069 3070 3070 3071 3071 3071 3072 3073 3074 3076 3077 3078 3080 3081 3082 3083 3084 3085 3086 3087 3088 3089 3090 3091 3092 3093 3092 3092 3092 3093 3092 3093 3092 3092 3093 3093 3095 3097 3098 3099 3099 3099 3100 3101 3102 3103 3105 3107 3106 3105 3105 3104 3105 3108 3111 3113 3116 3119 3121
3076 3075 3075 3075 3075 3075 3074 3074 3074 3074 3074 3074 3074 3073 3073 3073 3072 3072 3071 3071 3070 3069 3069 3068 3067 3067 3067 3067 3068 3068 3068 3069 3070 3070 3070 3071 3072 3073 3075 3076 3078 3079 3080 3081 3082 3083 3084 3085 3085 3086 3087 3088 3089 3091 3092 3090 3090 3090 3090 3091 3091 3091 3091 3091 3090 3091 3094 3095 3096 3096 3097 3099 3099 3100 3101 3104 3106 3105 3104 3103 3101 3102 3105 3110 3113 3116 3117 3116
3074 3073 3073 3072 3072 3072 3072 3072 3072 3072 3072 3072 3072 3072 3071 3071 3070 3070 3069 3069 3068 3068 3067 3067 3066 3066 3065 3065 3066 3067 3067 3067 3068 3068 3069 3070 3071 3072 3074 3076 3077 3078 3079 3080 3080 3082 3082 3083 3084 3084 3085 3085 3086 3088 3087 3086 3088 3088 3088 3088 3088 3088 3088 3087 3087 3088 3090 3092 3093 3093 3095 3096 3097 3098 3098 3100 3103 3104 3104 3103 3101 3102 3104 3109 3114 3114 3113 3111
3072 3071 3071 3070 3070 3070 3070 3070 3070 3070 3070 3070 3070 3070 3070 3069 3068 3068 3067 3066 3066 3066 3066 3065 3064 3065 3065 3064 3065 3066 3066 3066 3066 3067 3068 3069 3070 3071 3073 3076 3077 3077 3078 3078 3079 3080 3081 3082 3082 3081 3081 3082 3083 3084 3083 3084 3087 3087 3086 3087 3087 3087 3086 3085 3084 3085 3087 3089 3088 3089 3092 3093 3094 3096 3096 3097 3100 3101 3101 3102 3102 3101 3104 3109 3111 3109 3109 3109
3069 3069 3068 3068 3067 3067 3067 3067 3067 3067 3068 3068 3068 3068 3068 3067 3067 3065 3064 3063 3063 3063 3063 3063 3061 3062 3064 3064 3064 3064 3066 3067 3067 3067 3067 3068 3069 3070 3072 3075 3077 3076 3076 3077 3078 3079 3080 3080 3078 3077 3078 3080 3081 3082 3083 3084 3086 3086 3086 3086 3086 3086 3085 3083 3082 3082 3085 3085 3083 3086 3089 3091 3092 3094 3095 3095 3098 3097 3094 3099 3102 3101 3105 3107 3106 3105 3106 3105
3067 3067 3066 3065 3065 3065 3065 3065 3065 3065 3065 3065 3066 3066 3066 3065 3065 3063 3060 3059 3060 3061 3060 3060 3059 3058 3060 3062 3062 3063 3066 3067 3066 3067 3067 3067 3069 3070 3071 3073 3074 3074 3075 3076 3077 3078 3079 3077 3075 3076 3078 3079 3080 3082 3083 3084 3084 3084 3085 3085 3084 3083 3082 3081 3079 3078 3082 3082 3080 3084 3087 3089 3091 3092 3093 3094 3096 3096 3095 3098 3100 3102 3105 3104 3103 3104 3102 3103
3065 3064 3063 3063 3062 3062 3062 3062 3062 3062 3063 3063 3064 3064 3064 3064 3063 3062 3059 3056 3057 3058 3057 3058 3058 3056 3057 3060 3060 3061 3063 3065 3065 3066 3066 3066 3068 3069 3070 3071 3072 3072 3074 3075 3076 3077 3077 3074 3074 3075 3077 3079 3079 3081 3082 3082 3083 3083 3083 3083 3082 3080 3079 3080 3076 3074 3078 3078 3077 3082 3085 3087 3089 3091 3092 3093 3095 3097 3098 3099 3099 3101 3102 3099 3100 3100 3099 3103
3062 3062 3061 3060 3060 3060 3060 3060 3060 3060 3061 3061 3062 3062 3062 3062 3061 3061 3059 3055 3054 3055 3055 3054 3055 3054 3055 3057 3059 3059 3060 3062 3063 3064 3065 3065 3066 3067 3068 3069 3070 3071 3073 3073 3073 3075 3075 3072 3072 3074 3076 3077 3078 3079 3080 3081 3081 3081 3081 3081 3079 3077 3079 3081 3076 3072 3075 3075 3076 3081 3084 3086 3088 3089 3091 3092 3093 3095 3098 3100 3099 3099 3098 3097 3098 3097 3098 3104
3060 3059 3058 3058 3058 3057 3057 3058 3058 3058 3059 3059 3060 3060 3060 3060 3060 3059 3057 3054 3051 3052 3053 3052 3051 3051 3052 3054 3057 3057 3057 3059 3061 3062 3063 3063 3064 3066 3067 3068 3070 3070 3071 3072 3072 3073 3072 3069 3071 3074 3074 3076 3076 3076 3079 3079 3079 3079 3079 3079 3077 3076 3079 3082 3079 3075 3074 3074 3077 3081 3084 3085 3086 3088 3089 3091 3093 3093 3097 3099 3096 3097 3098 3096 3096 3096 3099 3103
3058 3057 3056 3056 3056 3055 3055 3056 3056 3056 3056 3057 3057 3058 3058 3058 3057 3056 3055 3054 3049 3049 3050 3049 3048 3049 3049 3052 3054 3055 3056 3057 3058 3061 3061 3061 3063 3065 3066 3067 3068 3068 3069 3071 3072 3072 3069 3068 3072 3073 3073 3074 3074 3074 3077 3077 3077 3077 3077 3078 3076 3075 3077 3081 3080 3079 3079 3077 3077 3080 3083 3083 3084 3086 3088 3090 3091 3092 3096 3095 3092 3096 3096 3094 3095 3096 3099 3103
3056 3055 3054 3054 3054 3053 3054 3054 3055 3054 3054 3054 3054 3054 3056 3055 3055 3055 3055 3053 3048 3045 3047 3046 3047 3047 3047 3048 3050 3054 3056 3055 3055 3059 3059 3059 3062 3064 3065 3066 3067 3067 3068 3070 3071 3070 3068 3068 3071 3072 3072 3073 3072 3073 3075 3075 3076 3075 3075 3077 3076 3075 3077 3080 3080 3080 3081 3079 3079 3080 3082 3083 3084 3085 3086 3088 3090 3091 3093 3091 3090 3094 3093 3091 3095 3097 3100 3103
3054 3054 3053 3052 3052 3052 3052 3052 3053 3053 3052 3053 3052 3052 3053 3053 3054 3054 3055 3055 3048 3043 3043 3043 3045 3045 3045 3046 3049 3053 3054 3052 3053 3056 3057 3058 3060 3062 3063 3064 3065 3065 3067 3069 3068 3067 3067 3067 3069 3070 3071 3071 3071 3072 3072 3074 3075 3073 3074 3076 3075 3074 3075 3078 3079 3079 3080 3080 3079 3080 3081 3082 3083 3084 3085 3087 3089 3088 3088 3089 3090 3091 3089 3091 3096 3098 3100 3102
3053 3052 3052 3051 3050 3050 3051 3051 3051 3051 3051 3051 3051 3052 3052 3053 3054 3054 3055 3055 3047 3041 3041 3042 3043 3045 3045 3046 3048 3050 3051 3051 3052 3053 3055 3057 3059 3061 3061 3062 3063 3064 3065 3067 3065 3065 3066 3066 3067 3069 3069 3069 3069 3070 3071 3073 3073 3072 3073 3074 3074 3074 3074 3075 3078 3078 3079 3079 3079 3079 3081 3082 3081 3082 3083 3086 3088 3085 3084 3087 3088 3087 3089 3092 3095 3097 3098 3101
3051 3051 3051 3050 3049 3049 3049 3049 3049 3049 3049 3049 3050 3052 3052 3053 3053 3053 3056 3054 3043 3039 3041 3041 3043 3045 3046 3047 3048 3049 3050 3051 3052 3052 3054 3055 3057 3059 3060 3060 3061 3062 3063 3065 3063 3064 3065 3065 3066 3067 3067 3067 3068 3069 3070 3072 3071 3071 3073 3073 3073 3074 3073 3074 3076 3077 3078 3078 3078 3079 3080 3082 3081 3081 3082 3083 3084 3083 3082 3085 3084 3084 3089 3093 3095 3096 3098 3100
3049 3049 3049 3049 3047 3047 3048 3047 3047 3048 3048 3048 3049 3051 3052 3052 3052 3053 3056 3051 3042 3040 3042 3041 3043 3045 3045 3047 3048 3048 3049 3050 3051 3053 3053 3053 3056 3058 3059 3060 3061 3061 3061 3062 3062 3062 3063 3064 3064 3065 3065 3066 3067 3068 3069 3070 3070 3071 3072 3073 3073 3074 3073 3073 3073 3075 3076 3076 3077 3078 3080 3081 3081 3080 3081 3081 3082 3080 3079 3081 3082 3084 3089 3093 3095 3096 3097 3099
3047 3047 3047 3047 3046 3046 3046 3046 3046 3046 3047 3047 3048 3050 3050 3050 3052 3053 3051 3046 3041 3040 3041 3041 3042 3043 3044 3046 3046 3047 3048 3048 3049 3052 3052 3052 3055 3057 3057 3059 3059 3060 3060 3059 3060 3061 3061 3061 3062 3063 3064 3064 3065 3066 3067 3068 3069 3070 3071 3072 3073 3072 3072 3071 3072 3073 3075 3075 3076 3078 3079 3081 3080 3080 3080 3079 3080 3079 3077 3079 3080 3083 3090 3094 3095 3096 3096 3097
3046 3046 3045 3045 3045 3045 3044 3044 3044 3045 3045 3045 3046 3047 3048 3049 3050 3049 3046 3044 3042 3039 3039 3041 3041 3042 3043 3044 3045 3046 3047 3047 3047 3050 3051 3050 3052 3054 3055 3056 3057 3058 3057 3057 3058 3059 3059 3059 3060 3062 3062 3063 3064 3064 3065 3066 3067 3069 3069 3071 3072 3072 3072 3073 3072 3071 3073 3074 3075 3076 3078 3079 3079 3079 3079 3078 3079 3078 3077 3078 3080 3083 3089 3092 3094 3095 3095 3096
3044 3044 3044 3043 3043 3043 3043 3043 3043 3044 3044 3044 3045 3045 3047 3048 3047 3044 3044 3043 3040 3037 3039 3041 3042 3042 3043 3043 3044 3045 3045 3046 3046 3048 3050 3049 3051 3053 3054 3055 3056 3057 3057 3057 3057 3058 3058 3058 3059 3060 3060 3061 3063 3062 3063 3064 3065 3066 3067 3069 3071 3072 3074 3075 3073 3071 3072 3073 3074 3075 3076 3076 3077 3077 3077 3077 3077 3077 3078 3079 3080 3084 3088 3091 3093 3094 3094 3095
3043 3042 3042 3042 3042 3042 3042 3042 3042 3042 3043 3043 3043 3044 3045 3046 3043 3042 3043 3041 3038 3036 3038 3040 3041 3042 3043 3042 3043 3044 3044 3045 3045 3047 3048 3049 3050 3051 3052 3054 3055 3056 3057 3057 3057 3056 3057 3056 3056 3058 3058 3059 3060 3060 3061 3063 3064 3064 3066 3068 3068 3069 3072 3073 3072 3072 3072 3072 3072 3073 3074 3074 3075 3076 3077 3078 3077 3076 3079 3080 3081 3084 3087 3090 3091 3092 3093 3093
3041 3041 3040 3040 3040 3040 3040 3040 3040 3041 3041 3041 3042 3043 3043 3042 3041 3041 3041 3040 3039 3039 3039 3040 3040 3041 3041 3041 3042 3043 3043 3043 3044 3046 3047 3048 3048 3049 3050 3052 3053 3055 3056 3056 3055 3055 3055 3054 3054 3056 3056 3057 3058 3059 3060 3062 3063 3064 3064 3066 3066 3066 3068 3070 3071 3071 3071 3071 3071 3072 3073 3074 3075 3077 3078 3079 3078 3077 3079 3080 3081 3082 3084 3087 3089 3090 3090 3091
3040 3039 3039 3038 3038 3038 3038 3039 3039 3039 3040 3040 3041 3040 3039 3039 3039 3040 3040 3040 3041 3042 3041 3040 3040 3039 3039 3039 3040 3041 3041 3042 3043 3044 3044 3045 3047 3048 3049 3051 3052 3053 3054 3054 3054 3054 3053 3053 3053 3054 3053 3054 3056 3058 3059 3060 3061 3063 3063 3064 3064 3066 3067 3068 3070 3069 3069 3072 3072 3071 3073 3075 3075 3077 3078 3078 3078 3078 3079 3080 3081 3082 3083 3086 3087 3088 3090 3091
3038 3038 3037 3037 3037 3037 3038 3038 3038 3038 3038 3039 3039 3038 3038 3038 3039 3039 3040 3040 3040 3041 3041 3039 3038 3038 3037 3037 3038 3039 3039 3040 3042 3043 3042 3043 3045 3046 3047 3049 3050 3052 3053 3053 3053 3053 3052 3051 3051 3052 3052 3053 3055 3057 3058 3059 3060 3062 3062 3063 3063 3065 3065 3065 3067 3069 3071 3073 3072 3070 3071 3073 3074 3075 3076 3076 3078 3078 3079 3080 3081 3082 3083 3084 3086 3088 3089 3090
3037 3037 3036 3036 3036 3037 3037 3037 3037 3037 3038 3037 3037 3037 3037 3037 3038 3038 3039 3039 3039 3040 3040 3039 3038 3037 3035 3035 3036 3037 3037 3038 3040 3042 3041 3041 3042 3044 3045 3047 3048 3049 3050 3051 3051 3052 3052 3050 3049 3051 3052 3053 3055 3056 3056 3058 3059 3060 3061 3062 3062 3063 3063 3064 3066 3069 3071 3073 3072 3070 3070 3072 3074 3074 3074 3075 3076 3078 3079 3079 3080 3081 3082 3083 3085 3086 3088 3089
3036 3037 3036 3035 3036 3036 3036 3036 3037 3037 3037 3036 3036 3036 3036 3036 3037 3038 3038 3039 3039 3039 3039 3038 3037 3036 3035 3035 3035 3035 3036 3036 3037 3039 3039 3039 3040 3041 3043 3045 3046 3047 3047 3048 3049 3050 3051 3050 3049 3050 3051 3052 3053 3055 3055 3056 3058 3059 3059 3060 3061 3061 3062 3063 3065 3067 3070 3072 3073 3072 3073 3073 3073 3074 3074 3074 3075 3076 3078 3079 3079 3081 3082 3084 3085 3086 3087 3088
3036 3036 3036 3036 3037 3037 3037 3036 3036 3036 3036 3035 3036 3036 3036 3036 3036 3036 3038 3038 3039 3039 3038 3037 3036 3035 3034 3034 3033 3034 3035 3034 3034 3036 3037 3039 3040 3040 3042 3043 3044 3045 3045 3046 3047 3047 3047 3048 3048 3049 3050 3051 3053 3054 3055 3055 3056 3058 3058 3059 3060 3060 3061 3062 3064 3065 3067 3070 3071 3073 3075 3074 3073 3073 3073 3074 3075 3075 3076 3078 3079 3081 3083 3084 3086 3086 3086 3087
3036 3036 3036 3037 3037 3037 3036 3036 3035 3035 3035 3035 3036 3036 3036 3036 3035 3035 3036 3037 3037 3038 3037 3036 3035 3034 3033 3033 3032 3033 3034 3033 3033 3034 3035 3037 3039 3040 3041 3042 3043 3043 3043 3044 3045 3046 3046 3046 3047 3048 3048 3050 3052 3053 3052 3052 3054 3055 3055 3056 3057 3057 3058 3061 3063 3065 3066 3068 3069 3071 3073 3074 3073 3073 3072 3073 3074 3074 3076 3078 3080 3081 3083 3085 3086 3087 3087 3087
3036 3036 3036 3037 3036 3036 3035 3035 3035 3035 3035 3035 3035 3035 3035 3035 3035 3034 3034 3035 3036 3035 3034 3033 3032 3032 3032 3033 3034 3034 3034 3033 3032 3033 3035 3036 3037 3037 3039 3041 3042 3041 3041 3042 3043 3044 3045 3045 3046 3046 3047 3049 3051 3051 3051 3051 3052 3053 3053 3054 3055 3055 3057 3058 3061 3063 3065 3067 3069 3069 3071 3073 3073 3072 3072 3072 3073 3074 3076 3078 3079 3081 3082 3084 3086 3086 3087 3087
3035 3035 3035 3036 3036 3036 3035 3034 3035 3035 3035 3034 3034 3033 3033 3032 3032 3032 3032 3034 3033 3032 3031 3031 3031 3031 3032 3033 3034 3034 3034 3033 3031 3032 3034 3035 3036 3036 3037 3039 3040 3039 3039 3040 3041 3043 3045 3046 3046 3046 3046 3047 3048 3050 3051 3051 3052 3052 3053 3055 3056 3056 3057 3057 3058 3060 3062 3065 3066 3068 3071 3073 3073 3072 3072 3071 3072 3074 3076 3077 3078 3079 3080 3081 3083 3083 3083 3084
3036 3035 3035 3036 3036 3035 3035 3034 3034 3034 3033 3032 3032 3031 3031 3031 3031 3031 3031 3032 3031 3030 3030 3031 3031 3032 3032 3033 3033 3033 3034 3033 3032 3032 3033 3034 3035 3035 3036 3037 3037 3037 3037 3038 3039 3042 3045 3046 3047 3047 3046 3046 3048 3049 3050 3051 3052 3053 3054 3055 3056 3057 3056 3057 3058 3059 3060 3063 3064 3066 3070 3072 3072 3072 3071 3071 3072 3074 3075 3077 3078 3080 3080 3080 3081 3081 3081 3081
3036 3035 3035 3035 3035 3035 3035 3034 3033 3032 3031 3030 3030 3030 3029 3029 3029 3030 3030 3030 3030 3030 3030 3030 3031 3031 3031 3031 3030 3030 3031 3033 3033 3033 3033 3034 3035 3035 3036 3036 3035 3035 3036 3037 3039 3041 3044 3046 3046 3047 3047 3047 3048 3048 3049 3050 3052 3054 3055 3054 3055 3056 3056 3057 3059 3060 3061 3062 3062 3064 3067 3069 3071 3072 3072 3072 3073 3074 3075 3076 3077 3080 3081 3082 3083 3083 3084 3084
3035 3035 3036 3036 3035 3035 3034 3033 3032 3031 3030 3029 3029 3028 3028 3027 3027 3028 3029 3029 3030 3030 3030 3030 3031 3030 3031 3031 3030 3029 3030 3032 3033 3033 3033 3034 3035 3035 3035 3035 3034 3035 3036 3037 3039 3040 3043 3045 3046 3047 3047 3047 3047 3047 3048 3049 3051 3053 3054 3054 3054 3055 3056 3057 3059 3061 3062 3063 3063 3064 3065 3067 3070 3072 3072 3072 3073 3073 3074 3075 3076 3079 3081 3083 3084 3085 3087 3089
3034 3035 3035 3035 3035 3034 3033 3032 3031 3030 3029 3028 3027 3027 3027 3026 3027 3027 3027 3028 3029 3030 3030 3030 3031 3031 3032 3031 3030 3029 3030 3031 3031 3031 3032 3034 3034 3034 3034 3033 3034 3036 3037 3038 3039 3040 3042 3045 3046 3047 3047 3047 3047 3046 3046 3048 3050 3052 3053 3053 3054 3055 3056 3058 3059 3060 3062 3063 3064 3066 3066 3067 3070 3071 3072 3072 3073 3073 3074 3075 3077 3079 3081 3083 3085 3086 3088 3090
3034 3034 3034 3034 3034 3033 3032 3031 3030 3029 3028 3027 3027 3027 3027 3027 3026 3026 3026 3027 3028 3029 3029 3029 3030 3031 3031 3030 3029 3029 3029 3030 3030 3031 3032 3034 3034 3034 3033 3033 3034 3036 3037 3038 3039 3039 3041 3043 3045 3046 3046 3046 3046 3046 3045 3047 3049 3050 3051 3053 3054 3055 3057 3058 3059 3060 3061 3061 3063 3066 3066 3067 3069 3070 3071 3072 3073 3073 3074 3076 3077 3079 3082 3083 3084 3086 3088 3089
3033 3034 3034 3033 3033 3033 3032 3031 3030 3029 3028 3027 3027 3026 3026 3026 3027 3026 3027 3027 3028 3028 3028 3028 3029 3030 3029 3028 3028 3029 3029 3030 3031 3032 3033 3034 3034 3034 3034 3034 3035 3036 3037 3038 3038 3039 3041 3043 3044 3045 3045 3045 3045 3045 3045 3048 3050 3051 3052 3054 3055 3056 3058 3058 3058 3059 3060 3060 3062 3063 3064 3066 3068 3069 3069 3071 3072 3073 3074 3076 3077 3078 3080 3082 3083 3084 3085 3086
3033 3033 3033 3033 3033 3033 3032 3031 3030 3029 3028 3027 3027 3026 3026 3026 3027 3027 3027 3028 3029 3029 3029 3029 3029 3029 3028 3028 3028 3029 3030 3030 3031 3032 3033 3034 3034 3035 3035 3035 3035 3036 3037 3038 3039 3039 3040 3042 3043 3043 3044 3045 3045 3045 3046 3048 3051 3052 3054 3055 3056 3057 3058 3058 3058 3058 3059 3060 3061 3061 3062 3064 3067 3068 3069 3071 3072 3073 3075 3075 3076 3078 3079 3079 3081 3082 3083 3084
3033 3033 3034 3034 3033 3033 3033 3032 3031 3030 3028 3027 3027 3027 3027 3027 3027 3027 3028 3028 3029 3028 3028 3029 3029 3029 3028 3028 3029 3030 3031 3032 3032 3032 3033 3034 3034 3035 3036 3036 3036 3037 3038 3038 3039 3039 3039 3042 3043 3043 3043 3044 3045 3046 3047 3048 3050 3052 3054 3055 3056 3057 3057 3057 3058 3058 3059 3061 3061 3061 3061 3064 3066 3067 3069 3071 3072 3073 3075 3076 3076 3077 3078 3078 3079 3080 3082 3082
3033 3034 3034 3033 3033 3034 3034 3033 3031 3031 3029 3028 3028 3028 3028 3028 3027 3028 3028 3028 3028 3028 3028 3029 3029 3029 3028 3028 3029 3030 3031 3031 3032 3032 3033 3033 3033 3034 3035 3036 3036 3037 3038 3038 3038 3038 3039 3042 3042 3042 3043 3044 3045 3046 3047 3048 3050 3053 3054 3054 3055 3056 3056 3056 3057 3059 3060 3061 3062 3061 3062 3064 3066 3067 3068 3070 3072 3073 3074 3075 3076 3077 3077 3077 3078 3079 3080 3081